Location: Breungeshain
(50.5000°N, 9.2000°E)
Time: 16:03:44
(UTC+00:00)

ISS - Pass Details

Date: 22 May 2018
Orbit: 402 x 407 km, 51.6° (Epoch: 23 May)

Event Time Altitude Azimuth Distance (km) Brightness Sun altitude
Rises 01:03:57 0° 286° (WNW) 2,321 -0.1 -15.5°
Reaches altitude 10° 01:06:03 10° 283° (WNW) 1,460 -1.1 -15.4°
Maximum altitude 01:09:17 61° 202° (SSW) 460 -3.9 -15.2°
Drops below altitude 10° 01:12:30 10° 121° (ESE) 1,454 -1.1 -14.9°
Sets 01:14:35 0° 118° (ESE) 2,311 0.0 -14.8°
